Weather History for KCTY - February, 2014

Change the Weather History Date:

Wednesday, February 12, 2014

  Actual Average Record
Temperature  
Mean Temperature 54 °F 56 °F  
Max Temperature 62 °F 70 °F 80 °F (2009)
Min Temperature 45 °F 43 °F 21 °F (2012)
Degree Days  
Heating Degree Days 11 9  
Month to date heating degree days 83 116  
Since 1 July heating degree days 882 994  
Cooling Degree Days 0 1  
Month to date cooling degree days 19 12  
Year to date cooling degree days 25 23  
Growing Degree Days 4 (Base 50)    
Moisture  
Dew Point 50 °F    
Average Humidity 94    
Maximum Humidity 100    
Minimum Humidity 83    
Precipitation  
Precipitation 0.28 in 0.07 in 0.29 in (2008)
Month to date precipitation 1.01 1.06  
Year to date precipitation 5.96 5.10  
Sea Level Pressure  
Sea Level Pressure 29.91 in    
Wind  
Wind Speed 7 mph (East)    
Max Wind Speed 22 mph    
Max Gust Speed 29 mph    
T = Trace of Precipitation, MM = Missing Value Source: NWS Daily Summary

Daily Weather History Graph

Daily Weather History Graph

Search for Another Location

Airport or City:

Trip Planner

Search our weather history database for the weather conditions in past years. The results will help you decide how hot, cold, wet, or windy it might be!

Date:

Astronomy

Feb. 12, 2014 Rise Set
Actual Time 7:14 AM EST 6:19 PM EST
Civil Twilight 6:49 AM EST 6:43 PM EST
Nautical Twilight 6:21 AM EST 7:11 PM EST
Astronomical Twilight 5:53 AM EST 7:39 PM EST
Moon 4:35 PM EST (2/12) 5:26 AM EST (2/12)
Length of Visible Light 11h 53m
Length of Day
11h 04m
Waxing Gibbous, 95% of the Moon is Illuminated
Feb 12
Waxing Gibbous
Feb 14
Full
Feb 22
Last Quarter
Mar 1
New
Mar 8
First Quarter

Hourly Weather History & Observations

Time (EST) Temp. Windchill Dew Point Humidity Pressure Visibility Wind Dir Wind Speed Gust Speed Precip Events Conditions
12:53 AM 53.1 °F - 48.9 °F 86% 30.07 in - ENE 5.8 mph - N/A   Unknown
1:53 AM 53.1 °F - 50.0 °F 89% 30.06 in - ENE 6.9 mph - N/A   Unknown
2:53 AM 52.0 °F - 48.9 °F 89% 30.04 in - ENE 6.9 mph - N/A   Unknown
3:53 AM 50.0 °F - 48.9 °F 96% 30.01 in - East 5.8 mph - N/A   Unknown
4:53 AM 50.0 °F - 48.0 °F 93% 30.00 in - East 8.1 mph - N/A   Unknown
5:53 AM 50.0 °F - 48.0 °F 93% 30.00 in - East 5.8 mph - N/A   Unknown
6:53 AM 50.0 °F - 48.9 °F 96% 29.99 in - East 5.8 mph - N/A   Unknown
7:53 AM 50.0 °F - 48.9 °F 96% 30.01 in - ENE 6.9 mph - N/A   Unknown
8:53 AM 50.0 °F - 48.9 °F 96% 29.99 in - East 6.9 mph - N/A   Unknown
9:53 AM 51.1 °F - 50.0 °F 96% 29.99 in - ENE 6.9 mph - N/A   Unknown
10:53 AM 53.1 °F - 51.1 °F 93% 30.00 in - NE 4.6 mph - N/A   Unknown
11:53 AM 52.0 °F - 51.1 °F 97% 29.99 in - North 10.4 mph - N/A   Unknown
12:53 PM 48.0 °F - 46.9 °F 96% 29.99 in - North 12.7 mph - 0.01 in   Unknown
1:53 PM 46.0 °F 41.9 °F 44.1 °F 93% 29.93 in - NE 8.1 mph 18.4 mph 0.04 in   Unknown
2:53 PM 46.0 °F 41.9 °F 44.1 °F 93% 29.90 in - East 8.1 mph - 0.04 in   Unknown
3:53 PM 46.9 °F - 46.0 °F 97% 29.83 in - ESE 5.8 mph - 0.06 in   Unknown
4:53 PM 48.9 °F - 48.0 °F 97% 29.81 in - SSE 5.8 mph - 0.06 in   Unknown
5:53 PM 51.1 °F - 50.0 °F 96% 29.76 in - SE 8.1 mph - 0.05 in   Unknown
6:53 PM 52.0 °F - 52.0 °F 100% 29.73 in - Calm Calm - 0.01 in   Unknown
7:53 PM 54.0 °F - 53.1 °F 97% 29.74 in - Calm Calm - N/A   Unknown
8:53 PM 55.9 °F - 55.0 °F 97% 29.72 in - SSE 4.6 mph - N/A   Unknown
9:53 PM 57.9 °F - 57.0 °F 97% 29.70 in - South 5.8 mph - 0.01 in   Unknown
10:53 PM 62.1 °F - 60.1 °F 93% 29.68 in - SSW 15.0 mph 20.7 mph N/A   Unknown
11:53 PM 60.1 °F - 57.9 °F 93% 29.68 in - West 15.0 mph 28.8 mph N/A   Unknown